Location: Newark
(45.2862°N, 9.8850°E)
Time: 19:08:25
(UTC+00:00)

N. Korean satellite - Pass Details

Date: 09 December 2019
Orbit: 454 x 507 km, 97.2° (Epoch: 28 January)

Event Time Altitude Azimuth Distance (km) Brightness Sun altitude
Rises 05:25:27 0° 9° (N) 2,559 10.1 -13.8°
Reaches altitude 10° 05:27:33 10° 7° (N) 1,665 9.2 -13.5°
Maximum altitude 05:31:06 69° 284° (WNW) 511 6.4 -12.9°
Drops below altitude 10° 05:34:33 10° 201° (SSW) 1,621 9.2 -12.3°
Sets 05:36:35 0° 199° (SSW) 2,484 10.2 -12.0°
